Location: Saint-Restitut
(44.3351°N, 4.7915°E)
Time: 02:28:49
(UTC+00:00)

ATLAS CENTAUR R/B - Pass Details

Date: 03 February 2023
Orbit: 450 x 653 km, 64.7° (Epoch: 19 March)

Event Time Altitude Azimuth Distance (km) Brightness Sun altitude
Rises 17:14:08 0° 234° (SW) 2,979 6.8 -4.4°
Reaches altitude 10° 17:16:35 10° 241° (WSW) 2,062 6.0 -4.8°
Maximum altitude 17:21:02 41° 312° (NW) 939 2.8 -5.6°
Drops below altitude 10° 17:25:21 10° 23° (NNE) 1,999 3.8 -6.3°
Sets 17:27:41 0° 31° (NNE) 2,877 4.5 -6.7°
Enters shadow 17:27:42 - 31° (NNE) 2,880 4.5 -6.7°
